Temperature
19 17 17 18 18 19 18 18 18 18 18 18 17 16 16 16 16 16 16 16 17 17 18 17 17 17 17 16 16 16 16 16 15 15 15 15 15 14 14 14 14 14 14 13
17 18 19 19 18 18 18 18 18 18 18 18 17 16 16 16 16 16 16 16 17 17 17 17 17 17 17 17 16 16 16 16 15 15 15 15 15 14 14 14 14 13 13 13
18 19 19 19 19 18 18 18 18 18 18 17 17 17 16 16 16 16 16 17 17 17 17 17 17 17 17 17 16 16 16 16 15 15 15 15 14 14 14 14 14 13 13 13
18 19 19 19 19 18 18 18 18 18 17 16 17 16 16 16 15 15 16 16 17 17 17 17 17 17 17 17 16 16 16 16 15 15 15 15 14 14 14 14 13 13 13 13
18 19 19 19 19 19 18 18 18 17 16 16 16 16 15 15 15 15 15 16 17 17 17 17 17 17 17 17 16 16 16 15 15 15 14 14 14 14 14 13 13 13 13 13
18 19 19 19 19 19 18 17 16 14 14 15 16 15 15 14 15 16 15 16 17 17 17 17 17 17 17 16 16 16 15 15 15 15 14 14 14 14 13 13 13 13 12 12
18 18 18 19 19 18 17 16 15 16 14 15 15 15 15 16 15 16 16 16 17 17 17 17 17 17 17 16 16 16 15 15 15 14 14 14 14 14 13 13 13 12 12 12
17 17 18 18 18 17 17 16 15 16 15 14 15 15 15 16 16 16 17 17 17 17 17 17 17 17 17 16 16 16 15 15 15 14 14 14 14 13 13 13 12 12 12 12
16 17 18 18 18 17 16 15 15 14 15 14 14 14 15 16 16 15 15 16 16 17 17 17 17 17 17 16 16 15 15 15 14 14 14 14 13 13 13 13 12 12 12 12
16 17 18 18 18 17 17 14 13 14 15 15 15 15 15 16 16 15 14 15 16 17 17 17 17 17 16 16 16 15 15 14 14 14 14 14 13 13 13 13 12 12 12 11
16 16 17 17 17 17 16 15 14 13 13 14 14 15 16 15 15 15 14 15 16 17 17 17 17 16 16 16 15 15 15 14 14 14 14 13 13 13 13 12 12 12 11 11
14 14 15 16 16 17 16 16 14 15 14 12 13 14 16 15 14 15 15 16 16 16 16 17 16 16 16 16 15 15 15 14 14 14 13 13 13 13 13 12 12 11 11 11
14 14 15 15 16 16 16 15 14 13 12 11 13 15 15 14 15 15 15 16 16 16 16 16 16 16 16 15 15 15 15 14 14 13 13 13 13 13 12 12 12 11 11 10
14 13 14 15 15 15 16 16 14 14 13 12 13 14 15 15 14 15 15 16 16 16 16 16 16 15 15 15 15 15 14 14 13 13 13 13 13 12 12 12 11 11 11 10
13 14 14 14 15 15 15 15 15 14 14 14 14 14 15 14 14 15 15 15 15 15 15 16 16 15 15 15 15 14 14 13 13 13 13 13 12 12 12 11 11 11 10 10
12 13 14 14 15 14 14 14 14 14 14 14 14 14 14 14 15 15 15 15 15 15 15 16 16 15 15 15 14 14 14 13 13 13 12 12 12 12 11 11 11 10 10 10
11 12 13 13 13 14 14 14 14 14 14 14 14 15 14 13 13 14 15 15 15 16 16 16 16 16 15 15 14 14 14 13 13 12 12 12 12 11 11 11 10 10 10 10
11 11 11 11 13 14 14 14 14 14 14 13 13 14 13 13 14 15 15 15 15 16 16 15 15 15 15 14 14 14 13 13 12 12 12 11 11 11 11 10 10 10 10 9
10 11 10 10 12 13 14 14 14 14 14 13 13 13 13 13 13 14 15 15 15 15 15 15 15 15 14 14 14 13 13 13 12 12 11 11 11 11 10 10 10 10 9 9
10 10 10 10 12 13 14 14 14 14 14 13 12 12 12 12 12 13 15 15 15 15 15 14 14 14 14 13 13 13 12 12 12 11 11 11 10 10 10 10 10 9 9 9
11 10 10 10 11 11 12 13 14 13 13 13 13 12 12 12 13 14 14 14 15 14 14 14 14 13 13 13 13 12 12 12 11 11 11 10 10 10 10 9 9 9 9 8
10 10 9 9 10 11 12 12 12 12 13 13 13 13 13 13 14 14 14 14 14 14 14 13 13 13 12 12 12 12 11 11 11 10 10 10 10 9 9 9 9 9 8 8
9 9 9 10 11 11 11 12 13 13 13 13 13 13 13 13 13 13 13 13 13 13 13 13 12 12 12 12 11 11 11 11 10 10 10 10 9 9 9 9 8 8 8 8
8 8 8 9 9 11 12 12 13 13 13 13 13 13 13 13 13 13 13 13 13 12 12 12 12 12 11 11 11 11 10 10 10 10 9 9 9 9 9 8 8 8 7 7
8 8 8 8 9 10 12 12 12 12 12 13 13 13 13 13 12 12 12 12 12 12 12 11 11 11 11 11 10 10 10 10 9 9 9 9 8 8 8 8 7 7 7 7
7 8 8 9 10 9 11 12 12 12 12 12 12 12 12 12 12 12 12 12 11 11 11 11 11 10 10 10 10 10 9 9 9 9 8 8 8 8 7 7 7 6 6 6
Wind_Speed
3 4 3 6 6 4 4 4 4 5 3 5 6 7 7 6 7 8 8 8 8 9 6 4 4 4 4 4 4 4 5 4 4 2 2 2 1 1 2 3 4 4 4 4
4 2 5 4 4 3 4 3 4 3 2 4 5 7 6 7 9 10 11 10 10 7 4 4 4 4 4 5 5 5 4 4 4 3 2 2 2 1 1 2 4 4 4 3
5 4 2 4 3 3 4 5 5 3 1 1 0 5 5 5 5 6 8 8 9 10 9 7 6 5 5 5 6 6 5 4 4 3 3 3 3 3 2 2 2 3 3 3
3 3 2 3 4 5 4 5 5 3 2 3 2 4 7 5 5 7 9 9 9 9 8 8 7 6 6 6 5 5 5 4 4 4 4 5 3 2 1 1 0 2 3 3
3 2 2 3 4 6 5 1 2 2 3 1 1 3 7 2 6 9 10 11 10 10 10 9 9 8 7 6 5 5 5 4 4 4 5 4 3 2 1 1 1 2 2 3
3 2 3 4 2 3 4 5 5 5 4 2 4 4 7 4 8 7 7 10 10 10 9 8 6 6 5 5 5 5 5 4 4 4 4 5 5 4 3 2 1 1 1 2
3 3 1 2 2 3 5 5 3 4 3 5 3 4 7 6 6 7 8 9 10 9 9 8 7 7 6 6 6 6 6 4 4 4 4 4 5 5 5 3 2 1 0 0
1 4 3 1 4 4 4 7 6 4 4 5 2 5 7 5 5 4 5 6 7 8 8 9 9 8 8 8 7 7 7 5 5 5 4 4 4 3 3 3 3 3 2 2
5 5 3 1 2 7 5 3 5 5 2 2 5 6 8 3 3 1 2 4 7 8 8 8 7 7 7 7 7 8 7 6 6 5 4 4 4 4 3 3 2 2 1 1
6 3 3 2 4 3 5 8 5 5 3 3 5 5 4 6 5 3 3 5 6 6 6 6 6 6 6 6 6 6 6 6 5 5 5 4 4 4 3 3 3 2 1 1
3 3 3 1 3 5 4 4 4 4 5 4 3 6 5 6 6 5 6 6 6 7 7 7 6 5 5 5 5 5 5 5 5 5 4 4 3 3 3 3 3 2 2 2
2 3 2 5 4 3 5 6 7 5 4 4 3 6 5 4 5 5 5 5 5 6 5 5 5 5 5 5 5 5 5 5 5 5 5 5 4 4 3 3 2 2 2 2
3 4 1 5 4 1 2 3 5 5 4 5 5 6 4 3 2 2 4 4 4 5 5 5 5 5 5 5 5 5 5 5 5 5 5 4 4 4 4 4 3 3 3 2
3 3 5 6 6 3 3 3 4 6 4 5 7 8 7 5 4 3 3 4 5 5 6 6 5 5 5 5 5 5 5 5 5 5 5 5 5 5 4 3 3 3 3 3
4 2 4 6 5 3 4 5 5 7 8 8 8 8 10 8 7 5 4 4 4 5 6 7 7 6 5 5 4 5 5 5 5 5 6 6 5 4 3 3 3 3 3 3
2 2 1 4 3 3 5 6 6 7 6 7 6 8 8 6 3 3 4 5 6 6 7 7 6 6 6 6 5 5 5 5 5 5 5 5 4 4 4 3 3 3 2 2
0 2 2 3 4 4 6 6 6 5 5 6 8 9 4 3 4 5 5 5 7 7 7 7 7 7 7 7 6 6 5 5 5 5 5 4 5 4 4 4 3 3 3 2
4 3 2 1 1 5 6 3 4 5 4 4 4 5 4 4 3 2 2 5 5 5 5 5 5 5 5 4 4 4 4 5 5 5 4 4 4 4 4 4 4 3 3 3
6 6 3 2 3 6 5 2 2 3 5 2 3 3 2 1 2 3 2 3 5 5 5 5 4 4 4 4 4 5 4 4 4 4 4 4 4 4 4 4 4 3 3 2
2 4 4 3 3 5 5 4 3 1 4 3 2 2 1 2 1 4 2 2 2 2 2 3 4 4 4 3 4 5 5 5 5 5 4 4 4 5 5 5 4 3 3 3
1 2 3 4 5 6 5 5 1 2 5 4 1 1 2 3 5 3 1 1 2 3 3 4 5 4 4 4 5 5 4 5 5 4 3 3 3 4 4 3 2 3 2 2
4 3 4 4 4 6 4 2 3 4 3 2 1 1 2 2 2 1 0 1 3 3 3 4 4 3 3 4 5 5 4 3 3 3 3 3 3 3 3 3 2 2 3 3
4 5 4 6 6 4 2 3 3 2 2 3 2 2 1 1 1 1 1 1 1 3 3 3 4 3 3 3 5 5 3 2 3 3 3 2 2 2 3 4 3 2 2 2
3 1 2 4 6 5 5 5 4 3 4 4 3 2 1 1 1 1 1 1 1 2 2 3 4 4 3 3 3 3 3 3 4 3 3 2 2 2 2 2 3 3 3 3
5 2 2 5 8 7 5 5 5 4 4 4 3 2 1 2 2 2 2 3 3 2 2 3 4 4 4 3 3 2 3 3 3 3 3 3 3 3 2 2 2 3 4 5
5 6 6 8 7 5 7 6 5 5 5 5 4 4 2 2 3 3 3 3 3 3 3 3 3 3 3 3 3 3 3 4 4 3 3 3 3 3 3 2 0 1 2 3
Wind_Direction
59 88 190 208 194 188 176 194 236 250 214 180 218 243 242 199 195 201 203 204 207 215 215 189 183 175 162 154 150 151 144 141 130 112 108 98 78 44 36 44 48 62 80 92
52 241 230 191 177 179 182 212 243 278 219 191 227 256 249 206 206 205 202 204 207 208 196 190 185 177 174 172 167 160 159 157 157 145 133 122 116 93 69 41 44 46 66 87
191 232 182 152 171 177 208 203 218 228 6 30 329 297 263 233 212 206 205 206 204 202 197 194 190 190 180 180 177 175 174 167 159 134 110 90 67 50 38 27 14 16 47 73
231 254 162 166 198 175 237 228 202 190 151 261 191 263 270 236 225 216 213 206 207 207 198 194 192 191 191 191 176 168 169 165 154 140 139 140 143 151 197 200 336 15 46 63
255 220 165 199 219 184 211 164 149 168 165 287 268 220 280 251 236 234 219 211 210 205 197 197 198 197 192 180 167 166 160 158 151 149 152 146 138 146 124 91 71 41 31 47
248 253 193 206 199 157 136 75 61 53 81 270 231 199 276 238 226 234 217 208 205 199 195 198 196 186 177 165 159 158 157 162 158 153 151 155 152 145 130 122 116 51 25 21
327 319 307 159 114 59 95 91 30 355 3 255 253 210 253 258 242 228 220 208 198 189 187 188 184 185 180 171 170 168 163 167 164 158 161 168 164 159 161 168 171 156 98 313
199 281 264 177 170 170 162 143 159 206 234 278 288 238 256 268 278 249 212 191 180 183 189 191 190 187 184 181 176 173 174 176 172 171 176 167 160 163 170 173 175 185 197 218
187 247 287 219 169 141 136 160 163 140 174 270 279 287 301 296 325 324 169 167 183 188 190 191 187 184 182 181 183 181 178 180 182 183 172 161 165 171 175 177 177 177 188 184
171 225 286 289 84 56 136 143 108 128 166 263 291 283 267 288 277 256 216 200 200 191 189 186 182 182 180 180 179 174 176 182 182 178 178 177 179 179 168 157 167 171 177 143
141 172 306 34 176 183 115 115 121 130 154 165 263 274 241 245 248 233 229 212 198 190 187 185 182 178 170 166 169 174 175 173 176 179 178 172 177 172 160 164 177 177 171 157
124 130 245 263 260 196 171 173 154 162 210 181 193 266 283 257 252 226 226 213 193 182 176 174 170 161 161 167 174 176 176 180 186 182 176 178 170 162 164 177 183 170 171 171
115 109 38 339 342 18 167 173 167 143 139 167 186 260 311 341 317 225 210 202 180 169 162 159 161 169 177 179 179 180 183 184 178 172 172 171 170 173 183 191 185 175 176 168
112 132 179 211 231 230 241 214 174 154 179 210 222 247 284 294 282 259 214 192 174 169 168 170 179 186 186 183 181 181 186 181 172 169 171 181 189 191 193 188 177 181 179 169
96 175 230 251 260 238 238 240 206 199 201 209 233 233 252 253 243 234 210 179 166 174 180 187 191 191 185 182 182 182 184 180 177 173 179 191 187 178 171 173 176 174 173 174
60 172 241 293 287 255 266 262 237 228 224 227 242 260 255 255 225 214 202 184 189 197 200 199 195 188 190 191 189 184 185 182 171 176 188 181 168 169 174 178 172 167 169 162
143 146 145 269 296 328 278 249 225 226 219 203 229 250 254 231 218 219 218 205 204 206 203 198 195 193 195 195 187 187 186 169 165 176 181 178 173 178 187 179 169 180 182 168
176 160 165 231 356 246 250 240 214 227 250 236 246 262 242 226 235 231 208 203 209 205 200 199 194 191 189 179 173 166 156 159 166 170 178 182 178 180 177 174 185 193 186 184
190 173 156 158 232 270 292 291 220 222 271 268 246 270 290 9 31 334 267 198 204 204 197 192 186 178 165 162 160 151 149 151 161 180 189 189 183 181 181 190 198 194 180 190
140 160 153 158 203 241 256 286 287 172 282 312 261 238 220 85 61 274 275 187 191 177 164 156 142 131 143 153 147 148 159 164 186 199 197 188 183 187 193 199 198 193 188 202
106 126 171 193 225 260 276 295 55 158 262 309 279 219 171 203 229 253 266 167 157 147 137 132 131 141 156 149 144 153 168 193 204 190 178 179 183 189 191 187 189 176 175 173
191 178 193 173 209 254 296 66 158 234 283 305 300 259 219 244 295 318 151 156 138 127 123 131 137 145 146 145 148 159 191 210 183 164 165 177 181 187 176 165 172 166 167 174
213 204 200 199 219 252 254 236 256 243 271 286 282 280 213 238 278 277 238 174 154 142 142 146 150 149 149 161 161 170 197 178 158 150 166 176 171 173 169 170 174 171 172 182
271 242 216 260 271 268 264 270 287 275 267 277 273 277 213 219 251 254 230 192 160 149 153 151 148 156 182 194 189 186 183 164 158 167 178 175 166 161 156 167 175 179 188 196
244 221 247 266 281 302 298 288 298 307 309 309 308 289 240 220 251 236 224 212 192 180 170 167 172 184 201 196 196 191 176 162 165 177 183 178 176 171 171 180 194 199 214 206
227 214 221 246 251 247 267 280 289 290 291 288 283 289 288 236 235 230 220 211 191 184 181 181 189 196 204 194 202 208 191 173 169 176 185 183 179 178 176 173 206 252 231 232
Height
1495 1501 1506 1504 1504 1505 1508 1512 1514 1511 1506 1509 1511 1510 1507 1508 1509 1510 1511 1512 1513 1515 1518 1520 1522 1523 1525 1526 1527 1529 1530 1530 1530 1531 1531 1531 1531 1531 1531 1531 1531 1531 1531 1531
1501 1503 1498 1498 1501 1503 1507 1512 1512 1509 1505 1507 1510 1509 1505 1505 1505 1505 1507 1509 1511 1513 1515 1517 1520 1521 1523 1524 1526 1527 1528 1529 1530 1530 1530 1531 1531 1531 1531 1531 1531 1531 1531 1530
1500 1498 1495 1498 1501 1505 1507 1510 1509 1509 1507 1507 1510 1511 1506 1502 1502 1504 1505 1506 1508 1510 1512 1514 1517 1519 1521 1522 1524 1526 1527 1528 1529 1529 1530 1530 1530 1530 1530 1530 1530 1530 1530 1529
1497 1494 1495 1498 1500 1502 1508 1502 1503 1507 1513 1518 1514 1524 1508 1502 1502 1501 1502 1503 1505 1507 1509 1512 1514 1516 1518 1520 1522 1524 1526 1527 1528 1528 1528 1528 1528 1528 1529 1529 1529 1529 1529 1528
1497 1494 1495 1498 1497 1498 1501 1499 1503 1506 1512 1519 1517 1522 1513 1503 1502 1498 1497 1499 1501 1504 1506 1509 1511 1514 1516 1519 1521 1522 1524 1525 1526 1527 1527 1527 1527 1527 1528 1528 1528 1528 1528 1527
1494 1492 1492 1493 1493 1495 1498 1503 1508 1514 1519 1526 1518 1522 1515 1505 1498 1493 1493 1494 1496 1500 1503 1506 1509 1512 1514 1516 1518 1520 1522 1523 1524 1525 1525 1526 1526 1526 1526 1526 1526 1527 1526 1526
1497 1493 1491 1491 1495 1497 1500 1513 1527 1527 1532 1529 1516 1518 1512 1495 1491 1489 1489 1490 1492 1496 1500 1503 1506 1509 1511 1514 1516 1518 1520 1521 1522 1523 1524 1524 1524 1525 1525 1525 1525 1525 1525 1525
1505 1505 1493 1491 1494 1499 1502 1509 1526 1533 1534 1528 1518 1518 1503 1490 1487 1486 1486 1487 1490 1494 1497 1500 1503 1505 1508 1511 1513 1515 1517 1519 1520 1521 1522 1523 1523 1524 1524 1524 1524 1524 1524 1524
1505 1503 1491 1489 1489 1493 1503 1509 1509 1523 1525 1529 1522 1512 1498 1487 1486 1485 1486 1487 1489 1491 1494 1497 1500 1503 1506 1508 1511 1513 1515 1517 1518 1519 1520 1521 1522 1522 1523 1523 1523 1523 1523 1523
1496 1501 1493 1490 1490 1493 1496 1503 1515 1522 1529 1532 1522 1515 1507 1492 1488 1487 1486 1486 1487 1490 1492 1495 1498 1501 1503 1506 1509 1511 1513 1514 1516 1517 1519 1519 1520 1521 1521 1521 1522 1522 1522 1522
1492 1500 1498 1494 1495 1497 1500 1504 1510 1519 1521 1529 1529 1517 1493 1489 1486 1486 1485 1485 1486 1488 1490 1493 1496 1499 1502 1504 1507 1508 1510 1512 1514 1515 1517 1517 1518 1519 1519 1520 1520 1521 1521 1521
1494 1501 1505 1498 1491 1490 1492 1497 1506 1515 1519 1523 1525 1515 1486 1485 1484 1483 1483 1484 1485 1487 1489 1491 1494 1497 1500 1502 1504 1506 1507 1509 1511 1513 1514 1515 1516 1517 1517 1518 1519 1519 1519 1519
1494 1502 1509 1505 1502 1495 1494 1495 1498 1505 1514 1522 1522 1510 1486 1484 1482 1482 1482 1483 1484 1486 1488 1490 1493 1495 1497 1500 1502 1503 1505 1506 1508 1510 1512 1513 1514 1515 1515 1516 1517 1517 1517 1517
1491 1500 1505 1507 1503 1496 1495 1494 1496 1502 1511 1515 1510 1501 1489 1485 1483 1482 1482 1482 1483 1485 1487 1489 1491 1493 1495 1497 1499 1501 1502 1504 1506 1507 1509 1510 1511 1512 1513 1514 1514 1515 1515 1515
1491 1498 1497 1496 1493 1493 1493 1492 1493 1496 1497 1501 1496 1495 1486 1482 1481 1480 1480 1481 1482 1483 1485 1487 1489 1491 1493 1495 1497 1498 1500 1502 1503 1505 1506 1507 1509 1510 1510 1511 1512 1512 1513 1513
1493 1497 1497 1496 1492 1492 1492 1490 1490 1490 1490 1491 1490 1488 1479 1478 1478 1478 1478 1479 1479 1481 1482 1484 1486 1488 1490 1492 1494 1495 1497 1499 1500 1502 1503 1505 1506 1507 1508 1508 1509 1509 1510 1510
1496 1497 1500 1501 1495 1492 1495 1487 1486 1485 1484 1485 1486 1481 1476 1476 1476 1476 1476 1476 1477 1478 1479 1481 1483 1485 1487 1489 1491 1493 1495 1496 1498 1499 1501 1502 1503 1504 1505 1505 1506 1506 1507 1507
1495 1498 1502 1503 1499 1500 1488 1479 1479 1480 1479 1478 1477 1475 1474 1473 1473 1473 1474 1474 1475 1476 1478 1479 1481 1483 1485 1487 1489 1491 1492 1494 1495 1496 1498 1499 1500 1501 1501 1502 1502 1503 1503 1504
1489 1494 1501 1504 1502 1494 1483 1478 1478 1479 1478 1475 1475 1473 1473 1473 1473 1473 1472 1473 1474 1475 1476 1478 1479 1481 1483 1485 1487 1488 1490 1491 1493 1493 1494 1496 1497 1498 1498 1499 1499 1500 1500 1500
1488 1490 1497 1502 1500 1497 1484 1476 1473 1476 1479 1474 1473 1473 1473 1473 1477 1474 1471 1471 1472 1473 1475 1476 1478 1480 1481 1483 1484 1486 1487 1488 1489 1490 1491 1493 1493 1494 1495 1495 1496 1496 1497 1497
1491 1494 1497 1499 1498 1490 1480 1475 1473 1484 1482 1473 1471 1471 1472 1473 1473 1472 1471 1471 1471 1472 1473 1474 1476 1477 1479 1481 1482 1483 1484 1485 1486 1488 1488 1489 1490 1491 1491 1492 1493 1493 1493 1493
1490 1493 1496 1498 1497 1491 1476 1475 1478 1478 1473 1472 1470 1470 1470 1470 1470 1470 1470 1470 1470 1471 1472 1473 1474 1476 1477 1478 1480 1481 1481 1483 1484 1485 1485 1486 1487 1487 1488 1488 1489 1489 1489 1489
1488 1487 1487 1487 1485 1478 1476 1475 1474 1473 1472 1471 1470 1469 1470 1469 1469 1469 1469 1468 1469 1469 1470 1471 1472 1474 1475 1476 1478 1478 1479 1480 1481 1481 1482 1483 1483 1484 1484 1485 1485 1485 1485 1485
1484 1482 1483 1482 1477 1474 1473 1472 1472 1471 1470 1469 1469 1468 1468 1468 1468 1468 1467 1467 1468 1468 1469 1470 1471 1472 1473 1474 1475 1476 1477 1478 1478 1478 1479 1479 1480 1480 1481 1481 1481 1481 1481 1480
1482 1482 1482 1480 1475 1472 1469 1469 1469 1469 1469 1468 1467 1467 1466 1466 1466 1466 1466 1466 1466 1467 1467 1468 1469 1470 1471 1471 1472 1473 1474 1474 1475 1475 1475 1476 1476 1476 1477 1477 1477 1477 1477 1477
1476 1477 1478 1475 1471 1471 1468 1467 1467 1467 1466 1466 1466 1465 1464 1464 1464 1464 1464 1464 1464 1464 1465 1466 1467 1467 1468 1469 1469 1470 1471 1471 1472 1472 1472 1472 1472 1472 1473 1473 1473 1473 1473 1473